Showing default

GGSE 2, 1244

Orbit data source: Space-Track

GGSE 2, 1244 is an American payload satellite in LEO that was launched on Tue, 09 Mar 1965 UTC via a THOR SLV-2 AGENA D launch vehicle from the Air Force Western Test Range (AFWTR). Payload-class satellites include a variety of spacecraft equipped with specific instruments for various scientific and technological missions. These include communications satellites like Starlink; space stations such as the ISS; scientific satellites like the Hubble; Earth observation satellites from companies like Planet Labs, Umbra, and HawkEye 360; GPS; miniature CubeSats for education and research; and military/defense satellites.

Loading next visibility...
Identifier
1244, 1965-016B
Orbit
LEO
Country
Flag of USUS
Related business
Manufacturer
NRL
Mission
Spacecraft
Bus & Motor
NRL 24", Unknown motor
Mass
55 kg wet, 55 kg dry
Launch date (UTC)
1965-03-09 (61 years ago)
Launch vehicle
THOR SLV-2 AGENA D
Launch site
Air Force Western Test Range (AFWTR)
Object type
Payload
Rocket body
Debris
Shape & HBR
Unknown
Radar Cross Section
Medium (>0.1 m² and <1 m²)

Expand to show TLE details & history
Last TLE update: 7 hours ago

TLE from 7 hours ago
0 GGSE 2
1 01244U 65016B   25349.94240562  .00000055  00000-0  78247-4 0  9996
2 01244  70.0779 216.6640 0022476 323.3089  36.6477 13.96122183 92489
Epoch: 2025-12-15T22:37Z
TLE epoch observation values (Epoch: 2025-12-15T22:37:03.845Z)
Latitude
-0.00005°
Longitude
152.56423°
Altitude
896.446 km
Speed
7.411 km/s
True Right ascension
14h 26m 39s
True Declination
0° 00' 00"
Sunlit
Object was in daylight at epoch
Visualization orbit readout
Latitude
Unknown
Longitude
Unknown
Altitude
Unknown
Speed
Unknown
Apparent Right ascension
Unknown
Apparent Declination
Unknown
Sunlit
N/A
Visualization observer readout
Local Sidereal Time
04:32:38
Azimuth
Unknown
Elevation
Unknown
Doppler factor
Unknown
Orbital elements
Apogee altitude
921.66 km
Perigee altitude
888.919 km
Semi-major axis
7,283.426 km
Eccentricity
0.00225
Inclination
70.0779°
RAAN
216.664°
Arg. of periapsis
323.3089°
True anomaly
36.80178°
Mean anomaly
36.6477°
Eccentric anomaly
36.72471°
Mean motion
3.49172 °/min
Orbital period
103.1 mins
BSTAR
0.000078247
Loading maneuver chart data...
Computing Atmospheric mass density...
Loading historical data...
Loading historical data...
Loading historical data...
Loading historical data...
Loading historical data...
Loading historical data...
Loading historical data...

Documentation

Showing up to 5 results
|